RH
21 55 85 99 31 15 15 19 41 79 100 99 78 98 100 100 100 100 100 87 84 95 85 31 27 36 40 19 22 37 44 55 81 97 98 98 98 53 39 34 29 47 61 64 96 96 81 68 66 64 84 95 95 95
18 48 61 100 43 57 28 27 30 92 100 98 74 96 100 100 100 100 100 96 96 100 61 27 25 30 38 34 23 24 25 37 86 94 99 98 95 100 92 49 35 31 31 50 59 62 74 60 58 54 60 78 76 71
13 28 67 98 70 84 100 31 38 100 100 93 95 96 100 100 100 100 100 98 100 99 61 16 20 20 25 41 43 43 39 29 34 48 90 100 100 96 98 100 86 43 33 28 28 31 50 64 60 47 43 52 59 57
12 18 80 100 90 93 96 58 28 42 85 82 98 85 100 100 100 100 100 98 100 86 45 12 12 14 18 31 46 49 50 53 51 46 48 93 99 100 100 99 98 99 65 37 31 28 28 35 40 48 46 38 35 36
11 12 76 100 95 100 100 90 49 37 91 100 78 88 100 100 100 100 100 99 98 73 20 10 9 11 20 28 44 54 54 52 58 69 68 63 88 97 100 99 100 94 95 98 58 44 35 29 29 29 31 31 35 37
11 11 94 100 96 99 100 93 52 66 90 77 54 80 100 100 100 100 100 98 100 70 24 21 28 28 50 67 74 69 64 63 48 56 74 78 69 79 98 100 91 85 91 74 80 98 97 96 93 82 61 34 25 21
11 10 88 95 82 100 99 64 54 82 91 91 58 98 100 100 100 100 100 100 100 91 63 63 81 78 77 93 94 90 90 88 62 52 70 94 86 67 80 100 76 74 91 94 91 84 73 81 75 68 65 65 66 66
11 10 56 100 100 91 95 63 79 100 100 78 72 100 100 100 100 99 100 100 100 99 96 82 80 84 87 89 93 93 94 98 82 57 61 80 93 76 73 96 74 84 95 96 91 89 92 82 71 71 73 71 70 72
11 10 28 100 98 98 95 62 53 86 100 67 67 100 100 100 99 99 100 100 100 100 95 85 81 88 95 98 98 95 95 98 84 70 66 77 87 93 96 71 79 94 98 97 100 99 90 89 90 88 84 84 84 90
11 10 11 79 100 63 89 62 53 80 100 89 93 100 99 100 100 100 100 100 100 96 86 84 93 94 97 99 98 96 95 94 81 82 77 82 99 94 81 87 93 89 92 92 94 97 98 97 97 97 96 94 89 81
10 10 8 19 97 84 50 73 62 59 99 93 97 100 100 100 100 100 100 100 92 81 79 89 90 96 98 96 97 97 92 88 87 76 80 83 100 88 91 99 94 87 89 85 84 85 83 77 71 64 59 56 51 46
9 9 8 8 30 98 86 35 40 23 92 76 76 100 100 100 100 100 100 95 79 78 72 87 100 100 100 100 99 98 98 95 87 78 84 92 97 92 91 99 96 87 84 75 62 56 51 47 45 43 42 40 38 36
8 8 7 7 7 24 90 82 30 15 33 54 24 97 100 100 100 98 89 81 78 76 90 99 100 100 100 99 99 100 99 93 89 84 82 100 96 98 95 96 97 93 80 69 63 59 56 52 42 38 35 35 34 31
7 7 7 6 6 7 15 59 65 43 8 16 14 48 100 100 98 82 73 74 81 90 96 98 100 99 99 100 100 99 97 93 92 81 91 100 96 99 93 86 87 84 74 63 55 49 44 42 38 35 34 33 31 27
8 7 6 6 6 6 6 8 21 35 22 16 60 85 62 94 89 85 74 74 78 77 82 85 88 89 95 100 100 99 98 88 77 90 100 100 96 97 98 94 85 76 67 59 54 49 47 44 42 38 35 36 35 33
11 10 8 6 6 6 6 6 6 8 16 10 29 74 29 38 77 86 82 82 79 85 90 90 91 89 85 94 97 98 93 86 87 100 100 100 100 99 98 96 86 73 64 58 53 50 48 46 44 41 39 39 40 40
13 12 10 9 8 6 6 5 5 5 6 11 11 22 89 83 36 30 49 62 67 75 81 93 100 99 96 90 86 90 88 95 95 95 97 98 94 88 87 88 86 78 70 64 59 56 55 56 56 55 53 52 52 53
14 13 11 10 9 8 7 6 6 5 5 5 6 6 13 28 68 73 65 73 73 74 70 89 100 100 93 84 87 91 97 98 95 94 93 95 95 91 91 86 81 76 70 66 62 60 60 62 64 66 68 69 68 67
13 13 12 11 10 9 8 7 6 6 5 5 5 6 6 6 6 15 51 88 94 86 98 100 100 94 94 95 96 91 89 87 85 83 79 79 81 80 78 81 84 82 77 72 68 68 68 68 72 75 72 75 86 88
10 10 11 11 11 10 9 8 7 6 6 5 5 5 5 6 6 6 7 55 100 100 98 97 100 98 91 95 97 95 89 87 84 80 79 78 77 80 82 81 82 82 80 77 72 69 75 76 79 81 82 89 96 96
16 14 9 9 9 10 10 9 8 7 6 6 5 5 5 5 5 5 6 14 87 100 100 100 100 100 96 92 84 85 87 89 86 83 86 84 84 87 87 84 77 70 69 75 86 95 95 95 89 84 83 79 92 100
37 24 18 14 11 10 9 10 9 9 8 7 6 5 5 5 5 5 5 5 6 32 91 100 100 93 92 87 80 77 81 82 84 84 83 82 80 76 74 73 72 71 72 76 83 91 84 80 81 83 86 100 100 100
78 56 39 24 19 14 15 12 11 10 10 9 9 7 6 5 5 5 5 5 5 5 5 12 41 81 92 100 100 98 93 95 94 85 78 80 82 87 92 96 94 89 89 90 87 80 80 82 86 86 82 86 83 68
81 85 50 38 33 26 17 18 17 14 12 12 10 9 8 7 6 5 5 5 5 5 5 5 4 5 8 20 25 28 44 67 77 82 84 80 77 78 71 60 50 48 51 50 52 56 58 50 41 40 34 15 6 4
94 74 58 52 68 48 34 23 20 20 18 14 12 11 10 8 7 6 5 6 5 5 4 5 5 5 5 5 5 5 5 5 6 7 5 5 4 4 4 4 4 4 4 4 4 4 4 4 4 4 4 4 4 4
65 73 85 100 98 74 48 36 25 20 18 16 15 14 13 11 9 8 10 9 8 6 5 4 4 4 4 4 4 4 4 5 5 5 5 5 5 5 5 5 5 4 4 4 4 4 4 4 4 4 4 5 5 6
100 100 100 100 100 96 73 44 28 23 19 17 16 14 12 12 12 12 12 11 10 8 8 7 6 5 5 4 4 4 4 4 4 3 3 3 3 4 4 4 4 4 4 4 4 4 4 5 5 6 6 7 7 8
100 100 100 100 100 94 79 64 45 34 24 20 18 18 14 14 15 14 13 12 11 11 11 10 9 8 8 8 7 6 6 6 6 6 6 6 6 6 6 6 6 6 6 8 12 14 17 21 24 25 24 22 16 12
100 100 100 100 100 100 100 87 80 76 64 53 44 33 34 37 33 30 35 42 35 36 29 19 15 13 12 12 13 14 31 55 41 38 35 40 47 44 39 36 32 28 26 28 31 30 30 28 23 22 31 48 69 83
94 94 97 100 100 100 100 100 100 98 97 95 89 89 87 92 100 97 95 100 100 99 95 92 91 73 69 76 82 95 100 86 79 67 48 40 58 76 76 68 61 64 81 92 88 87 82 83 86 91 95 98 98 94
44 44 41 38 50 83 100 100 100 100 100 100 97 92 99 100 99 95 100 100 100 100 100 100 100 100 100 100 98 98 100 100 99 92 89 77 79 81 82 82 78 75 76 79 80 82 84 87 88 86 82 82 82 82
45 41 38 34 32 31 36 74 100 100 100 100 100 98 100 100 100 100 100 100 100 100 100 100 100 100 100 100 100 100 100 100 98 93 85 79 74 74 78 79 80 80 80 82 84 86 86 84 78 70 64 57 50 40
48 44 39 36 33 31 30 29 32 77 100 99 100 100 100 100 100 100 100 100 100 100 100 100 100 100 100 100 100 100 100 100 99 98 98 97 97 94 93 92 89 87 81 75 71 66 60 54 48 39 31 23 17 15
Wind_Speed
42 43 45 47 50 54 56 54 44 40 41 43 43 42 38 39 44 50 53 56 49 42 34 32 27 22 17 15 12 11 10 12 15 15 12 9 8 9 9 10 11 9 8 7 8 6 4 10 12 13 17 18 14 17
39 44 48 46 49 48 50 48 42 44 38 41 41 45 33 42 50 50 53 53 46 43 35 35 30 25 21 17 15 13 12 10 13 14 13 12 10 6 7 8 7 8 8 6 5 5 6 9 13 15 15 17 18 17
39 43 46 47 54 52 50 45 46 46 42 42 42 40 37 38 50 51 51 48 46 39 37 36 33 28 23 21 18 16 14 13 11 13 14 10 10 9 8 4 6 5 4 5 4 5 7 7 10 17 20 20 20 19
39 41 43 44 54 53 54 48 49 51 48 44 41 40 32 36 43 51 51 49 46 38 38 37 35 31 26 23 22 21 18 17 16 14 13 13 9 9 8 9 8 4 2 0 2 3 5 7 8 10 16 18 20 18
39 39 41 43 53 59 56 52 49 48 50 42 36 36 34 37 41 45 48 51 43 40 38 36 35 33 29 26 24 23 23 22 21 19 19 15 15 9 8 9 7 7 4 3 6 6 6 6 7 8 10 12 15 17
37 38 36 43 43 59 54 55 51 51 48 41 37 42 34 39 40 44 49 45 43 40 40 39 35 34 31 30 29 28 28 27 27 24 23 21 21 15 9 11 14 8 5 4 4 7 9 9 8 9 10 12 14 15
36 36 33 41 47 49 52 53 50 52 50 47 37 37 33 32 34 39 41 47 47 45 43 42 40 38 35 34 30 30 32 32 30 29 24 22 23 22 11 14 16 2 4 8 8 8 9 10 11 11 12 13 14 15
35 36 34 40 46 50 51 49 51 48 50 45 39 37 32 48 40 35 36 43 47 49 48 49 46 41 40 38 37 36 34 37 35 31 26 26 24 22 10 21 18 14 9 10 10 10 11 11 12 12 12 13 14 15
33 35 35 38 39 46 49 48 47 46 47 42 40 36 35 44 45 37 33 34 41 50 48 50 46 43 43 41 39 38 37 35 37 32 30 27 19 18 22 22 15 14 14 11 10 12 14 14 14 14 15 15 16 17
31 33 35 35 43 38 47 46 46 48 47 44 44 42 37 42 44 44 41 37 39 41 43 42 42 44 42 42 45 44 41 38 34 32 30 23 15 23 21 17 18 16 13 12 11 11 11 12 11 11 13 14 16 17
30 31 34 35 38 42 38 46 44 43 46 44 48 42 32 35 36 36 38 39 39 36 35 31 33 35 39 42 42 39 39 39 36 31 30 19 20 23 18 17 18 17 15 14 13 13 13 13 15 16 17 18 19 20
27 29 31 34 36 39 42 39 45 42 46 44 46 44 34 35 41 36 37 41 40 38 35 30 28 28 29 31 33 33 35 36 34 28 28 20 26 23 21 20 19 19 19 18 16 16 17 17 18 19 20 21 23 24
26 28 29 31 34 36 38 42 41 43 43 45 45 48 44 41 47 42 36 38 41 39 36 32 30 30 27 28 30 31 34 35 33 30 27 22 26 23 23 23 22 22 21 20 19 20 20 21 22 23 24 24 24 25
24 26 28 30 32 37 41 42 43 42 42 45 46 47 51 44 44 44 38 35 34 35 37 36 33 31 28 25 27 30 33 34 34 30 23 24 24 24 23 22 22 23 22 22 23 24 25 25 26 26 27 27 27 30
22 24 26 28 30 33 36 40 43 45 46 47 49 51 54 55 46 43 43 40 38 38 40 39 36 35 32 31 30 28 29 32 34 27 25 26 24 25 25 26 27 25 26 27 27 28 29 29 30 31 32 32 34 36
22 23 24 25 28 31 34 37 40 45 47 49 52 50 52 53 55 51 47 46 46 43 39 39 40 40 39 36 35 32 31 31 31 29 29 28 25 25 25 26 28 29 29 30 31 32 32 34 35 36 37 38 40 42
25 25 25 26 27 29 32 36 39 41 45 48 50 52 54 51 51 54 57 54 51 50 47 44 43 41 41 42 40 38 36 36 36 35 35 34 34 32 31 32 33 32 33 34 36 38 39 40 41 41 42 43 46 47
29 28 27 28 29 30 31 33 36 38 40 43 47 50 54 55 55 53 50 51 51 49 49 48 46 46 45 44 43 42 42 42 42 41 41 42 41 40 38 37 38 39 39 40 42 43 44 45 45 45 46 48 50 51
34 32 32 31 31 30 31 33 34 36 38 40 43 47 50 52 53 53 55 53 51 50 48 47 48 47 46 47 48 48 48 47 46 46 45 46 46 46 45 44 44 44 45 46 47 49 50 50 50 50 52 52 53 53
38 37 37 35 34 33 32 32 33 34 36 38 40 42 46 49 52 53 54 54 51 50 50 48 47 47 48 48 49 50 51 52 52 51 51 50 50 50 50 50 50 50 51 51 54 56 55 55 55 54 52 51 50 49
34 38 39 39 38 37 35 33 33 34 35 36 38 40 42 45 48 52 55 57 57 55 52 46 44 47 50 51 52 52 51 50 52 53 53 54 53 52 53 54 54 55 55 55 55 54 54 52 51 50 50 51 52 54
16 25 37 39 39 38 36 34 33 33 34 35 37 40 42 44 46 48 50 51 53 56 61 62 59 55 53 54 55 55 54 53 52 51 50 49 50 51 51 51 51 51 51 51 50 49 50 53 55 56 57 57 58 60
16 14 18 31 36 37 35 34 32 32 31 32 33 36 39 42 44 46 46 45 46 50 54 56 60 66 66 65 62 59 59 59 59 59 58 57 56 54 53 52 53 54 54 54 55 57 58 61 62 63 64 65 67 68
19 14 12 17 28 33 35 34 33 30 30 30 31 33 34 37 40 40 40 41 46 49 49 49 50 51 52 56 57 56 54 56 56 57 57 57 56 54 55 56 57 57 58 59 60 62 64 65 67 69 70 68 65 64
11 12 14 12 18 25 29 31 32 30 30 30 30 30 31 33 33 35 36 38 42 43 44 46 49 49 49 49 49 50 51 51 51 51 52 53 52 53 53 54 55 57 58 58 59 60 61 61 61 61 61 60 60 59
14 11 8 8 10 14 20 24 26 27 28 28 27 27 28 29 29 29 28 31 33 35 38 42 44 44 46 46 47 48 49 51 51 51 52 52 53 53 55 55 56 58 58 58 58 58 58 57 57 58 57 57 56 55
16 13 11 9 11 14 15 18 21 23 24 23 23 25 26 26 25 25 26 28 29 30 30 32 34 35 36 38 38 40 42 44 45 46 46 47 49 51 53 54 55 55 56 56 57 57 56 56 55 53 51 50 48 46
10 7 6 5 5 6 9 13 16 18 20 21 22 23 23 22 23 24 24 25 27 26 27 28 27 28 29 31 32 34 35 36 37 38 39 41 43 45 46 46 47 48 49 50 49 47 45 42 39 38 38 37 36 33
7 7 6 5 2 1 4 7 9 12 15 16 17 18 16 18 19 19 19 20 22 22 24 25 26 27 26 25 26 26 22 24 26 28 29 31 31 34 36 35 34 34 33 32 30 29 27 25 24 22 21 20 21 25
3 3 3 4 4 2 3 4 6 8 9 10 12 13 13 14 16 17 18 17 16 15 16 16 14 13 13 16 19 16 16 16 14 15 16 16 13 13 14 14 13 12 11 11 12 12 13 16 18 21 24 26 29 31
7 7 6 5 5 5 5 4 4 6 8 10 13 13 14 14 15 15 14 14 12 11 11 10 10 11 11 12 14 14 15 17 18 16 15 15 16 17 17 16 16 17 18 19 20 21 23 24 24 25 27 29 31 33
20 20 19 18 17 15 13 12 10 7 6 6 7 12 13 10 8 6 8 10 11 9 6 7 9 10 11 10 10 9 11 13 15 16 16 16 17 17 16 16 17 17 18 19 21 23 25 26 28 29 31 32 33 36
24 25 26 26 26 25 24 22 20 17 15 11 8 6 6 8 10 10 9 9 9 8 7 7 8 10 10 9 9 10 10 11 12 13 14 15 16 17 19 19 20 22 23 24 25 27 29 30 32 34 36 38 39 40
Wind_Direction
219 211 213 212 207 209 206 209 206 206 219 227 236 230 232 231 228 225 224 229 236 243 230 232 233 241 256 259 270 284 309 323 331 343 345 357 355 5 15 19 19 21 22 33 70 90 151 172 175 186 190 193 203 214
221 213 213 214 203 199 203 203 202 203 218 224 231 230 234 230 226 227 228 231 234 238 223 228 230 233 245 254 257 271 289 302 318 334 341 342 359 4 351 8 25 30 34 46 74 97 115 167 182 188 194 200 207 213
218 214 212 213 206 211 208 202 199 203 211 220 227 233 241 233 223 221 228 231 235 221 222 225 228 230 236 247 253 261 273 287 297 318 332 334 343 356 5 345 344 17 37 54 83 110 132 142 172 183 199 208 212 220
218 213 210 211 204 208 211 202 204 210 214 220 225 234 238 232 225 222 228 230 224 214 220 224 226 226 232 239 252 258 263 271 282 295 311 316 318 341 350 349 349 345 266 351 99 119 145 160 159 173 185 196 204 212
215 211 210 211 204 197 202 204 209 208 210 216 224 232 236 232 222 223 226 219 213 215 218 221 224 225 228 236 244 254 261 264 272 281 289 291 302 305 321 323 329 326 333 208 203 186 187 189 190 193 200 206 214 222
211 210 210 208 210 195 196 202 202 209 212 211 220 227 239 232 222 226 220 211 212 211 216 218 221 225 231 238 245 250 257 265 266 273 282 278 275 282 286 289 290 276 290 285 289 227 211 202 210 222 224 225 228 233
209 210 209 206 211 209 199 200 200 207 212 212 222 221 221 226 224 229 233 220 215 213 218 221 224 229 233 240 244 252 256 261 264 266 274 274 275 270 264 276 263 259 242 274 271 258 247 241 240 235 230 231 234 237
207 209 208 203 204 205 204 205 205 208 212 210 219 217 223 220 231 225 224 227 221 220 222 226 227 228 237 243 251 258 257 255 256 261 266 272 273 266 257 260 261 271 271 245 244 242 241 234 234 233 235 237 240 244
207 208 207 205 203 206 204 205 206 209 211 207 217 218 223 218 221 229 230 230 235 233 236 236 234 232 239 243 252 257 255 255 255 257 263 267 267 268 247 250 258 258 256 248 242 243 241 241 241 243 244 246 248 252
206 206 206 206 201 202 204 203 207 212 213 208 214 218 221 214 219 226 231 232 230 230 234 239 242 244 246 246 251 256 253 253 261 256 256 257 256 251 246 245 245 250 239 236 234 234 230 235 245 255 261 264 266 269
203 202 203 205 204 200 201 204 207 208 212 210 214 215 219 214 216 219 223 227 228 231 234 237 245 250 247 246 247 247 249 254 262 248 247 242 245 245 243 236 233 234 235 232 237 242 248 250 253 256 260 264 268 271
202 202 201 200 202 203 198 201 206 207 210 212 216 215 219 224 220 226 229 227 226 229 234 241 247 248 242 241 244 247 252 255 250 238 241 237 244 244 242 235 231 231 233 236 240 244 248 254 258 264 269 272 275 279
199 199 201 200 201 203 205 204 206 207 207 212 213 216 219 223 223 225 230 227 229 233 239 240 242 243 246 247 246 246 244 244 243 237 235 238 242 242 239 238 237 236 235 240 248 253 256 259 260 264 266 268 271 275
199 199 201 201 201 204 204 205 206 209 208 210 212 214 218 226 225 226 228 225 230 237 237 239 240 244 245 251 249 243 241 243 241 238 232 236 236 239 241 241 239 240 245 252 258 262 266 268 269 270 271 271 274 281
202 201 202 204 205 206 206 206 206 208 208 208 212 217 220 224 227 226 228 230 234 237 241 244 244 245 247 250 253 251 246 243 242 237 235 241 243 242 242 244 246 249 254 258 263 267 269 270 272 274 275 275 277 283
207 209 207 206 207 209 209 210 210 210 211 212 213 218 222 225 229 229 230 232 235 240 243 246 248 247 248 250 251 251 248 245 247 248 247 245 244 244 245 247 252 256 262 267 270 272 273 274 274 276 278 279 280 283
216 215 216 215 213 211 211 211 213 213 214 216 217 219 221 225 227 229 232 235 239 241 244 248 249 247 247 250 251 252 252 251 250 252 254 257 254 252 250 252 252 258 266 270 274 277 278 276 277 279 281 282 283 284
226 223 222 222 220 218 217 216 217 216 216 218 220 223 224 226 228 231 232 235 238 241 242 246 248 249 248 248 249 250 251 251 253 254 256 259 261 262 261 261 262 265 267 270 274 277 278 280 281 281 283 284 285 285
228 227 227 227 227 225 223 222 220 218 219 219 220 223 225 227 229 231 235 238 243 244 246 247 249 251 251 250 250 249 249 250 252 253 256 258 260 263 265 266 266 267 271 275 277 279 280 280 279 283 287 287 286 287
229 228 229 227 228 229 229 228 228 224 223 223 224 225 227 229 230 231 233 234 238 244 248 249 248 248 249 247 248 250 251 250 251 253 255 258 260 262 265 267 269 271 274 277 278 279 280 281 284 285 285 285 284 284
227 227 226 227 227 229 230 229 229 228 228 228 227 228 229 231 232 232 233 234 233 237 241 236 233 240 245 249 252 254 256 257 258 258 257 258 259 261 263 267 271 274 275 275 274 276 278 281 281 281 281 283 282 283
223 224 223 225 225 226 229 230 230 229 229 229 230 230 231 232 234 235 235 236 236 237 236 235 237 239 243 250 254 256 259 261 261 262 262 262 264 267 267 269 269 269 269 270 273 274 274 275 276 278 280 281 281 284
241 242 229 220 221 223 224 227 229 231 231 231 233 234 234 235 236 237 238 239 240 241 241 241 243 245 245 246 252 257 259 259 262 264 265 266 267 267 267 268 269 269 270 271 272 273 274 275 277 278 279 281 284 286
229 242 252 231 217 216 218 222 226 228 230 231 234 237 239 241 242 243 243 243 243 245 246 246 246 247 247 247 250 254 256 259 260 260 261 263 264 264 264 265 265 266 266 267 268 269 271 274 276 278 279 280 280 281
217 251 259 241 213 212 213 218 223 226 228 231 234 237 241 244 246 248 246 246 246 247 247 248 250 251 251 252 254 256 256 256 256 256 257 258 259 260 261 263 264 265 266 268 269 270 271 273 274 277 278 280 282 283
247 236 190 176 184 197 210 219 224 229 232 235 237 240 242 246 248 249 251 253 253 252 251 250 250 251 252 251 251 252 253 254 255 255 258 260 260 261 262 263 265 266 268 269 271 272 273 274 275 275 275 277 279 282
111 113 116 146 180 196 206 218 228 235 239 241 243 245 246 248 251 251 250 251 253 253 253 253 252 251 251 251 250 250 251 252 253 253 254 256 257 258 259 261 263 265 267 269 270 271 272 273 275 278 280 281 281 282
77 110 152 157 173 194 207 221 232 239 242 242 242 243 243 244 247 245 245 245 246 245 245 245 244 243 242 241 242 242 244 246 248 250 251 253 255 259 263 267 270 272 274 277 279 281 281 279 275 273 273 273 274 277
125 140 127 125 149 245 245 236 234 235 235 238 240 243 242 240 241 244 246 248 249 248 251 250 248 247 246 245 241 244 238 239 245 250 256 262 268 273 276 280 280 278 275 273 273 274 273 273 273 273 276 280 283 286
115 132 140 166 181 198 242 254 243 241 239 235 228 229 232 237 242 242 240 238 238 241 248 252 253 248 232 220 215 229 233 232 239 251 257 258 259 269 280 285 282 271 265 268 272 275 281 286 290 291 290 288 288 289
263 253 250 258 264 258 247 243 237 232 231 239 249 247 246 246 242 238 232 231 238 247 242 245 249 247 248 259 258 245 237 235 239 244 249 248 254 265 271 277 282 284 287 289 292 294 296 296 295 295 294 292 291 290
258 259 259 258 257 257 255 249 237 231 234 243 233 237 238 238 230 242 246 244 243 228 211 223 230 232 232 233 235 242 244 240 238 248 256 261 268 277 284 290 294 297 298 298 295 293 290 288 288 289 290 291 292 291
258 258 258 257 256 254 251 251 246 240 237 240 246 247 244 240 231 226 223 217 208 208 225 240 239 235 229 229 237 243 247 248 249 251 255 259 264 269 272 275 277 281 285 288 289 290 290 290 291 290 289 290 291 293